| time (UTC) | temp F | wind direction | speed knots | gust knots | rain 1hr in | rain 24hr in | rain mn in | humidity % | barometer mb |
| 20260504151016 | 63 | 289 | 0.0 | 4.3 | 0.00 | 0.00 | 0.00 | 62 | |
| 20260504150514 | 64 | 192 | 0.9 | 5.2 | 0.00 | 0.00 | 0.00 | 61 | |
| 20260504140940 | 60 | 250 | 1.7 | 2.6 | 0.00 | 0.00 | 0.00 | 64 | |
| 20260504140436 | 60 | 230 | 2.6 | 4.3 | 0.00 | 0.00 | 0.00 | 63 | |
| 20260504130401 | 57 | 212 | 0.9 | 2.6 | 0.00 | 0.00 | 0.00 | 65 | |
| 20260504110248 | 48 | 189 | 0.0 | 0.0 | 0.00 | 0.00 | 0.00 | 74 | |
| 20260504100211 | 48 | 302 | 0.0 | 0.0 | 0.00 | 0.00 | 0.00 | 74 | |
| 20260504090134 | 49 | 261 | 0.0 | 0.0 | 0.00 | 0.00 | 0.00 | 72 | |
| 20260504081604 | 50 | 277 | 0.0 | 0.0 | 0.00 | 0.00 | 0.00 | 70 | |
| 20260504081100 | 50 | 277 | 0.0 | 0.0 | 0.00 | 0.00 | 0.00 | 69 | |
| 20260504080557 | 51 | 303 | 0.0 | 0.0 | 0.00 | 0.00 | 0.00 | 69 | |
| 20260504050410 | 52 | 213 | 0.0 | 0.0 | 0.00 | 0.00 | 0.00 | 66 | |
| 20260504045907 | 52 | 168 | 0.0 | 0.0 | 0.00 | 0.00 | 0.00 | 66 | |
| 20260504045402 | 52 | 270 | 0.0 | 0.0 | 0.00 | 0.00 | 0.00 | 66 | |
| 20260504044859 | 52 | 243 | 0.0 | 0.0 | 0.00 | 0.00 | 0.00 | 67 | |
| 20260504044356 | 52 | 220 | 1.7 | 4.3 | 0.00 | 0.00 | 0.00 | 67 | |
| 20260504043853 | 52 | 239 | 0.0 | 0.0 | 0.00 | 0.00 | 0.00 | 67 | |
| 20260504043350 | 52 | 202 | 0.0 | 0.0 | 0.00 | 0.00 | 0.00 | 66 | |
| 20260504042848 | 53 | 177 | 0.0 | 0.0 | 0.00 | 0.00 | 0.00 | 63 | |
| 20260504042344 | 53 | 209 | 0.0 | 6.1 | 0.00 | 0.00 | 0.00 | 61 | |
| 20260504041840 | 53 | 220 | 0.0 | 0.0 | 0.00 | 0.00 | 0.00 | 62 | |
| 20260504041337 | 52 | 240 | 0.0 | 0.0 | 0.00 | 0.00 | 0.00 | 63 | |
| 20260504040833 | 52 | 265 | 0.0 | 0.0 | 0.00 | 0.00 | 0.00 | 63 | |
| 20260504040331 | 52 | 206 | 0.0 | 0.0 | 0.00 | 0.00 | 0.00 | 65 | |
| 20260504035826 | 52 | 191 | 0.0 | 0.0 | 0.00 | 0.00 | 0.00 | 65 | |
| 20260504035325 | 52 | 176 | 0.0 | 0.0 | 0.00 | 0.00 | 0.00 | 65 | |
| 20260504034821 | 52 | 201 | 0.0 | 0.9 | 0.00 | 0.00 | 0.00 | 65 | |
| 20260504034319 | 52 | 201 | 0.0 | 0.0 | 0.00 | 0.00 | 0.00 | 65 | |
| 20260504033816 | 52 | 285 | 0.0 | 0.0 | 0.00 | 0.00 | 0.00 | 64 | |
| 20260504033314 | 52 | 247 | 0.0 | 0.0 | 0.00 | 0.00 | 0.00 | 65 | |
| 20260504032810 | 52 | 262 | 0.0 | 0.0 | 0.00 | 0.00 | 0.00 | 65 | |
| 20260504032307 | 52 | 193 | 0.0 | 0.0 | 0.00 | 0.00 | 0.00 | 66 | |
| 20260504031804 | 51 | 265 | 0.0 | 0.9 | 0.00 | 0.00 | 0.00 | 67 | |
| 20260504031301 | 51 | 263 | 0.0 | 0.0 | 0.00 | 0.00 | 0.00 | 69 | |
| 20260504030757 | 51 | 303 | 0.0 | 0.0 | 0.00 | 0.00 | 0.00 | 69 | |
| 20260504030254 | 51 | 291 | 0.0 | 0.0 | 0.00 | 0.00 | 0.00 | 69 | |
| 20260504025750 | 51 | 255 | 0.0 | 0.0 | 0.00 | 0.00 | 0.00 | 69 | |
| 20260504025248 | 51 | 288 | 0.0 | 0.0 | 0.00 | 0.00 | 0.00 | 69 | |
| 20260504024744 | 51 | 213 | 0.0 | 0.0 | 0.00 | 0.00 | 0.00 | 70 | |
| 20260504024241 | 51 | 248 | 0.0 | 0.0 | 0.00 | 0.00 | 0.00 | 71 | |
| 20260504023738 | 51 | 324 | 0.0 | 0.0 | 0.00 | 0.00 | 0.00 | 71 | |
| 20260504023234 | 51 | 313 | 0.0 | 0.0 | 0.00 | 0.00 | 0.00 | 71 | |
| 20260504022730 | 50 | 321 | 0.0 | 0.0 | 0.00 | 0.00 | 0.00 | 71 | |
| 20260504022226 | 50 | 311 | 0.0 | 0.0 | 0.00 | 0.00 | 0.00 | 72 | |
| 20260504021724 | 50 | 325 | 0.0 | 0.0 | 0.00 | 0.00 | 0.00 | 72 | |
| 20260504021221 | 50 | 334 | 0.0 | 0.0 | 0.00 | 0.00 | 0.00 | 72 | |
| 20260504020717 | 50 | 326 | 0.0 | 0.0 | 0.00 | 0.00 | 0.00 | 71 | |
| 20260504020214 | 50 | 318 | 0.0 | 0.0 | 0.00 | 0.00 | 0.00 | 70 | |
| 20260504015711 | 50 | 319 | 0.0 | 0.0 | 0.00 | 0.00 | 0.00 | 70 | |
| 20260504015207 | 50 | 326 | 0.0 | 0.0 | 0.00 | 0.00 | 0.00 | 70 | |
| 20260504014703 | 50 | 322 | 0.0 | 0.0 | 0.00 | 0.00 | 0.00 | 69 | |
| 20260504014200 | 50 | 291 | 0.0 | 0.0 | 0.00 | 0.00 | 0.00 | 70 | |
| 20260504013658 | 50 | 342 | 0.0 | 0.0 | 0.00 | 0.00 | 0.00 | 69 | |
| 20260504013154 | 50 | 243 | 0.0 | 0.0 | 0.00 | 0.00 | 0.00 | 69 | |
| 20260504012651 | 51 | 247 | 0.0 | 0.0 | 0.00 | 0.00 | 0.00 | 69 | |
| 20260504012149 | 51 | 198 | 0.0 | 0.0 | 0.00 | 0.00 | 0.00 | 69 | |
| 20260504011646 | 51 | 240 | 0.0 | 0.0 | 0.00 | 0.00 | 0.00 | 69 | |
| 20260504011142 | 51 | 245 | 0.0 | 0.0 | 0.00 | 0.00 | 0.00 | 69 | |
| 20260504010638 | 51 | 257 | 0.0 | 0.0 | 0.00 | 0.00 | 0.00 | 69 | |
| 20260504010134 | 51 | 257 | 0.0 | 0.0 | 0.00 | 0.00 | 0.00 | 69 | |
| 20260504005631 | 51 | 209 | 0.0 | 0.0 | 0.00 | 0.00 | 0.00 | 70 | |
| 20260504005128 | 50 | 283 | 0.0 | 0.0 | 0.00 | 0.00 | 0.00 | 70 | |
| 20260504004626 | 50 | 330 | 0.0 | 0.0 | 0.00 | 0.00 | 0.00 | 71 | |
| 20260504004123 | 50 | 322 | 0.0 | 0.0 | 0.00 | 0.00 | 0.00 | 71 | |
| 20260504003619 | 51 | 323 | 0.0 | 0.0 | 0.00 | 0.00 | 0.00 | 71 | |
| 20260504003116 | 50 | 294 | 0.0 | 0.0 | 0.00 | 0.00 | 0.00 | 71 | |
| 20260504002613 | 50 | 326 | 0.0 | 0.0 | 0.00 | 0.00 | 0.00 | 71 | |
| 20260504002111 | 50 | 322 | 0.0 | 0.0 | 0.00 | 0.00 | 0.00 | 71 | |
| 20260504001608 | 50 | 322 | 0.0 | 0.0 | 0.00 | 0.00 | 0.00 | 72 | |
| 20260504001104 | 50 | 337 | 0.0 | 0.0 | 0.00 | 0.00 | 0.00 | 72 | |
| 20260504000601 | 50 | 340 | 0.0 | 0.0 | 0.00 | 0.00 | 0.00 | 72 | |
| 20260504000059 | 50 | 342 | 0.0 | 0.0 | 0.00 | 0.00 | 0.00 | 71 | |
| 20260503235557 | 50 | 336 | 0.0 | 0.0 | 0.00 | 0.00 | 0.00 | 72 | |
| 20260503235053 | 50 | 342 | 0.0 | 0.0 | 0.00 | 0.00 | 0.00 | 72 | |
| 20260503234551 | 50 | 324 | 0.0 | 0.0 | 0.00 | 0.00 | 0.00 | 73 | |
| 20260503234049 | 50 | 325 | 0.0 | 0.0 | 0.00 | 0.00 | 0.00 | 71 | |
| 20260503233545 | 50 | 242 | 0.0 | 0.0 | 0.00 | 0.00 | 0.00 | 72 | |
| 20260503233041 | 51 | 270 | 0.0 | 1.7 | 0.00 | 0.00 | 0.00 | 71 | |
| 20260503232539 | 51 | 208 | 0.0 | 7.0 | 0.00 | 0.00 | 0.00 | 68 | |
| 20260503232036 | 52 | 230 | 0.9 | 5.2 | 0.00 | 0.00 | 0.00 | 66 | |
| 20260503231534 | 53 | 303 | 0.9 | 7.0 | 0.00 | 0.00 | 0.00 | 61 | |
| 20260503231030 | 53 | 253 | 4.3 | 9.6 | 0.00 | 0.00 | 0.00 | 59 | |
| 20260503230527 | 54 | 273 | 0.9 | 2.6 | 0.00 | 0.00 | 0.00 | 58 | |
| 20260503230024 | 54 | 225 | 0.0 | 2.6 | 0.00 | 0.00 | 0.00 | 56 | |
| 20260503225521 | 54 | 278 | 0.9 | 2.6 | 0.00 | 0.00 | 0.00 | 55 | |
| 20260503225016 | 55 | 203 | 1.7 | 5.2 | 0.00 | 0.00 | 0.00 | 53 | |
| 20260503224514 | 55 | 282 | 1.7 | 7.8 | 0.00 | 0.00 | 0.00 | 51 | |
| 20260503224011 | 56 | 273 | 0.9 | 7.8 | 0.00 | 0.00 | 0.00 | 48 | |
| 20260503223509 | 57 | 182 | 0.9 | 4.3 | 0.00 | 0.00 | 0.00 | 46 | |
| 20260503223004 | 57 | 213 | 3.5 | 7.0 | 0.00 | 0.00 | 0.00 | 44 | |
| 20260503222503 | 59 | 232 | 1.7 | 6.1 | 0.00 | 0.00 | 0.00 | 42 | |
| 20260503222000 | 59 | 223 | 2.6 | 6.1 | 0.00 | 0.00 | 0.00 | 40 | |
| 20260503221459 | 59 | 280 | 0.0 | 7.0 | 0.00 | 0.00 | 0.00 | 40 | |
| 20260503220956 | 59 | 203 | 0.9 | 2.6 | 0.00 | 0.00 | 0.00 | 39 | |
| 20260503220452 | 59 | 233 | 1.7 | 2.6 | 0.00 | 0.00 | 0.00 | 40 | |
| 20260503215949 | 59 | 239 | 0.0 | 7.0 | 0.00 | 0.00 | 0.00 | 40 | |
| 20260503215445 | 59 | 260 | 0.0 | 1.7 | 0.00 | 0.00 | 0.00 | 41 | |
| 20260503214943 | 59 | 200 | 0.9 | 2.6 | 0.00 | 0.00 | 0.00 | 40 | |
| 20260503214441 | 60 | 201 | 3.5 | 11.3 | 0.00 | 0.00 | 0.00 | 39 | |
| 20260503213938 | 60 | 207 | 0.9 | 5.2 | 0.00 | 0.00 | 0.00 | 39 | |
| 20260503213436 | 60 | 235 | 0.9 | 1.7 | 0.00 | 0.00 | 0.00 | 39 | |
| 20260503212932 | 60 | 193 | 0.9 | 9.6 | 0.00 | 0.00 | 0.00 | 39 | |
| 20260503212430 | 60 | 223 | 0.9 | 8.7 | 0.00 | 0.00 | 0.00 | 38 | |
| 20260503211927 | 60 | 187 | 0.9 | 4.3 | 0.00 | 0.00 | 0.00 | 37 | |
| 20260503211424 | 60 | 246 | 0.0 | 7.0 | 0.00 | 0.00 | 0.00 | 37 | |
| 20260503210919 | 60 | 295 | 0.9 | 5.2 | 0.00 | 0.00 | 0.00 | 38 | |
| 20260503210417 | 61 | 214 | 3.5 | 8.7 | 0.00 | 0.00 | 0.00 | 37 | |
| 20260503205917 | 61 | 199 | 1.7 | 8.7 | 0.00 | 0.00 | 0.00 | 39 | |
| 20260503205414 | 61 | 195 | 1.7 | 4.3 | 0.00 | 0.00 | 0.00 | 37 | |
| 20260503204910 | 61 | 220 | 1.7 | 6.1 | 0.00 | 0.00 | 0.00 | 37 | |
| 20260503204408 | 62 | 248 | 0.0 | 2.6 | 0.00 | 0.00 | 0.00 | 38 | |
| 20260503203905 | 61 | 228 | 0.0 | 4.3 | 0.00 | 0.00 | 0.00 | 38 | |
| 20260503203402 | 62 | 317 | 0.9 | 4.3 | 0.00 | 0.00 | 0.00 | 37 | |
| 20260503202859 | 62 | 268 | 0.0 | 1.7 | 0.00 | 0.00 | 0.00 | 37 | |
| 20260503202357 | 61 | 234 | 0.9 | 1.7 | 0.00 | 0.00 | 0.00 | 38 | |
| 20260503201855 | 62 | 179 | 1.7 | 8.7 | 0.00 | 0.00 | 0.00 | 37 | |
| 20260503201352 | 64 | 244 | 0.9 | 12.2 | 0.00 | 0.00 | 0.00 | 36 | |
| 20260503200849 | 62 | 243 | 0.0 | 4.3 | 0.00 | 0.00 | 0.00 | 36 | |
| 20260503200345 | 64 | 333 | 0.0 | 9.6 | 0.00 | 0.00 | 0.00 | 36 | |
| 20260503195842 | 63 | 239 | 0.0 | 2.6 | 0.00 | 0.00 | 0.00 | 36 | |
| 20260503195338 | 64 | 211 | 0.0 | 4.3 | 0.00 | 0.00 | 0.00 | 36 | |
| 20260503194836 | 63 | 275 | 0.0 | 1.7 | 0.00 | 0.00 | 0.00 | 36 | |
| 20260503194332 | 64 | 221 | 0.9 | 2.6 | 0.00 | 0.00 | 0.00 | 35 | |
| 20260503193828 | 63 | 222 | 0.0 | 11.3 | 0.00 | 0.00 | 0.00 | 36 | |
| 20260503193324 | 63 | 177 | 0.0 | 4.3 | 0.00 | 0.00 | 0.00 | 37 | |
| 20260503192820 | 63 | 305 | 0.9 | 4.3 | 0.00 | 0.00 | 0.00 | 36 | |
| 20260503192316 | 63 | 209 | 0.0 | 1.7 | 0.00 | 0.00 | 0.00 | 35 | |
| 20260503191812 | 62 | 226 | 0.0 | 2.6 | 0.00 | 0.00 | 0.00 | 36 | |
| 20260503191310 | 62 | 236 | 1.7 | 5.2 | 0.00 | 0.00 | 0.00 | 36 | |
| 20260503190806 | 62 | 201 | 0.9 | 2.6 | 0.00 | 0.00 | 0.00 | 36 | |
| 20260503190303 | 64 | 216 | 2.6 | 7.0 | 0.00 | 0.00 | 0.00 | 33 | |
| 20260503185800 | 64 | 264 | 0.0 | 0.9 | 0.00 | 0.00 | 0.00 | 36 | |
| 20260503185256 | 64 | 190 | 0.9 | 2.6 | 0.00 | 0.00 | 0.00 | 35 | |
| 20260503184755 | 64 | 214 | 0.0 | 7.0 | 0.00 | 0.00 | 0.00 | 36 | |
| 20260503184252 | 62 | 217 | 2.6 | 5.2 | 0.00 | 0.00 | 0.00 | 36 | |
| 20260503183748 | 62 | 262 | 0.9 | 5.2 | 0.00 | 0.00 | 0.00 | 35 | |
| 20260503183246 | 62 | 224 | 0.0 | 5.2 | 0.00 | 0.00 | 0.00 | 36 | |
| 20260503182743 | 62 | 233 | 1.7 | 4.3 | 0.00 | 0.00 | 0.00 | 36 | |
| 20260503182242 | 61 | 209 | 0.9 | 6.1 | 0.00 | 0.00 | 0.00 | 36 | |
| 20260503181739 | 61 | 189 | 1.7 | 4.3 | 0.00 | 0.00 | 0.00 | 36 | |
| 20260503181236 | 62 | 225 | 1.7 | 4.3 | 0.00 | 0.00 | 0.00 | 36 | |
| 20260503180732 | 62 | 245 | 2.6 | 5.2 | 0.00 | 0.00 | 0.00 | 36 | |
| 20260503180231 | 61 | 252 | 2.6 | 7.8 | 0.00 | 0.00 | 0.00 | 36 | |
| 20260503175727 | 59 | 237 | 1.7 | 5.2 | 0.00 | 0.00 | 0.00 | 38 | |
| 20260503175225 | 61 | 284 | 2.6 | 6.1 | 0.00 | 0.00 | 0.00 | 37 | |
| 20260503174720 | 62 | 194 | 0.9 | 6.1 | 0.00 | 0.00 | 0.00 | 38 | |
| 20260503174219 | 62 | 197 | 0.9 | 7.0 | 0.00 | 0.00 | 0.00 | 37 | |
| 20260503173713 | 60 | 245 | 2.6 | 6.1 | 0.00 | 0.00 | 0.00 | 39 | |
| 20260503173210 | 61 | 253 | 0.9 | 4.3 | 0.00 | 0.00 | 0.00 | 38 | |
| 20260503172707 | 60 | 239 | 0.9 | 5.2 | 0.00 | 0.00 | 0.00 | 38 | |
| 20260503172204 | 60 | 179 | 1.7 | 4.3 | 0.00 | 0.00 | 0.00 | 37 | |
| 20260503171700 | 62 | 309 | 0.9 | 5.2 | 0.00 | 0.00 | 0.00 | 37 | |
| 20260503171158 | 61 | 223 | 2.6 | 4.3 | 0.00 | 0.00 | 0.00 | 39 | |
| 20260503170654 | 60 | 226 | 1.7 | 6.1 | 0.00 | 0.00 | 0.00 | 37 | |
| 20260503170151 | 59 | 218 | 0.9 | 2.6 | 0.00 | 0.00 | 0.00 | 39 | |
| 20260503160113 | 59 | 202 | 0.0 | 4.3 | 0.00 | 0.00 | 0.00 | 42 |